Regional Weather Roundup
Issued by NWS

Home | Current Version | Previous Version | Graphics & Text | Print | Product List | Glossary On
Versions: 1 2 3 4 5 6 7 8 9 10 11 12 13 14 15 16 17 18 19 20 21 22 23 24 25 26 27
000
ASUS45 KSLC 271310
RWRUT

UTAH REGIONAL WEATHER ROUNDUP
NATIONAL WEATHER SERVICE SALT LAKE CITY UT
700 AM MDT TUE JUN 27 2017

UTZ001>011-023>025-271400-

NORTHERN UTAH

CITY           SKY/WX    TMP DP  RH WIND       PRES   REMARKS
BRIGHAM CITY   MOCLDY    74  40  29 NW13      29.95R
HILL AFB       CLEAR     70  40  33 CALM      29.95R
LOGAN          PTCLDY    64  48  56 W6        29.97R
OGDEN          CLEAR     73  44  35 S5        29.92R
SALT LAKE CITY PTCLDY    73  47  39 SW3       29.91R
TOOELE VALLEY  CLEAR     63  41  45 SE7       29.93R
WENDOVER         N/A     76  27  16 VRB5      29.94R
HEBER CITY     CLEAR     52  39  62 CALM      29.99R
WEST JORDAN    CLEAR     71  52  50 CALM      29.95R

$$

UTZ011>015-024>027-271400-

CENTRAL/NORTHEAST UTAH

CITY           SKY/WX    TMP DP  RH WIND       PRES   REMARKS
PROVO AIRPORT  CLEAR     64  38  38 SE3       29.94R
MOAB/CANYONLAN SUNNY     74  24  15 SE6       29.92R
DELTA          CLEAR     68  14  12 S10       29.97R
PRICE          CLEAR     64  22  20 MISG      30.02R
VERNAL         CLOUDY    62  42  47 NW3       29.97R

$$

UTZ013>016-019>022-027-271400-

SOUTHERN UTAH

CITY           SKY/WX    TMP DP  RH WIND       PRES   REMARKS
BRYCE CANYON   PTCLDY    40  23  50 SW5       30.22S
CEDAR CITY     CLEAR     59  18  20 CALM      30.06R
MILFORD        CLEAR     66  11  11 SW8       30.00R
ST GEORGE      SUNNY     72  19  13 CALM      29.90R
HANKSVILLE     CLEAR     61  14  16 CALM      29.96R
BLANDING       SUNNY     64  39  39 CALM      30.19S

$$

REGIONAL REPORTS     COLORADO/ARIZONA

CITY           SKY/WX    TMP DP  RH WIND       PRES   REMARKS
CRAIG, CO      SUNNY     52  40  63 CALM      30.06S
GRAND JUNCTION SUNNY     73  33  23 SE12      29.97R
RIFLE, CO      CLOUDY    58  31  35 CALM      30.06R
MONTROSE, CO   SUNNY     70  35  27 E10       30.09R
CORTEZ, CO     SUNNY     60  43  53 NE6       30.15R
COLORADO CITY    N/A     52  23  32 SE3       30.07R
PAGE, AZ       CLEAR     75  30  19 CALM      29.98R
GRAND CANYON   CLEAR     45  25  45 CALM      30.20R
KINGMAN, AZ    CLEAR     71  24  17 S12       29.94S
FLAGSTAFF, AZ  CLEAR     49  28  44 CALM      30.25R

$$

REGIONAL REPORTS    NEVADA/IDAHO/WYOMING

CITY           SKY/WX    TMP DP  RH WIND       PRES   REMARKS
LAS VEGAS, NV  CLEAR     83  22  10 S8        29.81R
ELY, NY        CLEAR     54  24  31 CALM      30.13R
ELKO, NV       CLEAR     56  32  40 CALM      30.08R
POCATELLO, ID  PTCLDY    61  53  75 S9        29.94R
BURLEY, ID     CLEAR     63  48  58 SW9G18    29.94R
FORT BRIDGER,    N/A     60  23  24 W13       30.08S
EVANSTON, WY   CLOUDY    59  39  47 N7        30.09R
ROCK SPRINGS,  CLOUDY    63  34  33 CALM      30.02S
KEMMERER, WY     N/A     54  36  50 NW10      30.10R

$$




USA.gov is the U.S. government's official web portal to all federal, state and local government web resources and services.